EZS45SG LSGG-LEMH

Flight info

Callsign EZS45SG
Flight time 1h 12m
Altitude 37000
Route BALSI DCT RETNO DCT TUPOX DCT MTG DCT DIVKO DCT VATIR DCT PIVUS DCT BODEQ DCT VERSO L16 SARGO
Aircraft A320/M-SDE2E3FGHIJ1RWXYZ/LB1

Departure

Time 2026-05-04 13:35
Airport Geneva International Airport (LSGG)

Arrival

Time 2026-05-04 14:48
Airport Menorca Airport (LEMH)
Time Latitude Longitude Altitude Speed Heading
2026-05-04 12:49 46.23223 6.10489 1393 ft 0 kts 270°
2026-05-04 13:26 46.23223 6.10488 1393 ft 1 kts 273°
2026-05-04 13:26 46.23237 6.10438 1393 ft 1 kts 338°
2026-05-04 13:26 46.23244 6.10439 1399 ft 5 kts 355°
2026-05-04 13:27 46.23306 6.10512 1392 ft 14 kts 44°
2026-05-04 13:27 46.23365 6.10595 1401 ft 10 kts 40°
2026-05-04 13:27 46.23406 6.10647 1403 ft 16 kts 44°
2026-05-04 13:27 46.23486 6.10761 1387 ft 15 kts 46°
2026-05-04 13:28 46.23550 6.10854 1391 ft 11 kts 45°
2026-05-04 13:28 46.23594 6.10917 1387 ft 9 kts 46°
2026-05-04 13:28 46.23668 6.11027 1388 ft 21 kts 46°
2026-05-04 13:28 46.23796 6.11215 1379 ft 27 kts 50°
2026-05-04 13:29 46.23918 6.11393 1375 ft 25 kts 44°
2026-05-04 13:29 46.24045 6.11576 1370 ft 26 kts 46°
2026-05-04 13:29 46.24172 6.11768 1364 ft 27 kts 46°
2026-05-04 13:29 46.24304 6.11959 1363 ft 26 kts 45°
2026-05-04 13:30 46.24417 6.12128 1370 ft 21 kts 45°
2026-05-04 13:30 46.24511 6.12265 1372 ft 18 kts 44°
2026-05-04 13:30 46.24595 6.12389 1370 ft 17 kts 46°
2026-05-04 13:30 46.24683 6.12518 1364 ft 19 kts 46°
2026-05-04 13:31 46.24782 6.12651 1362 ft 19 kts 27°
2026-05-04 13:31 46.24841 6.12687 1363 ft 2 kts 11°
2026-05-04 13:31 46.24870 6.12700 1364 ft 12 kts 17°
2026-05-04 13:31 46.24907 6.12716 1366 ft 0 kts 17°
2026-05-04 13:33 46.24917 6.12720 1366 ft 8 kts 17°
2026-05-04 13:33 46.24988 6.12708 1370 ft 8 kts 327°
2026-05-04 13:33 46.25003 6.12670 1371 ft 1 kts 270°
2026-05-04 13:33 46.24987 6.12633 1371 ft 6 kts 220°
2026-05-04 13:34 46.24981 6.12623 1371 ft 1 kts 228°
2026-05-04 13:34 46.24980 6.12622 1371 ft 1 kts 228°
2026-05-04 13:34 46.24881 6.12470 1372 ft 53 kts 225°
2026-05-04 13:34 46.24471 6.11870 1372 ft 114 kts 225°
2026-05-04 13:35 46.23800 6.10885 1382 ft 160 kts 226°
2026-05-04 13:35 46.22116 6.08342 2135 ft 194 kts 226°
2026-05-04 13:35 46.21109 6.06857 2341 ft 222 kts 226°
2026-05-04 13:36 46.19941 6.05170 2726 ft 247 kts 225°
2026-05-04 13:36 46.18706 6.03395 3385 ft 258 kts 224°
2026-05-04 13:36 46.17420 6.01547 4293 ft 260 kts 224°
2026-05-04 13:36 46.16126 5.99680 5177 ft 266 kts 224°
2026-05-04 13:37 46.14821 5.97776 6001 ft 272 kts 224°
2026-05-04 13:37 46.13477 5.95804 6854 ft 276 kts 224°
2026-05-04 13:37 46.12021 5.93998 7692 ft 279 kts 207°
2026-05-04 13:37 46.10144 5.93370 8459 ft 282 kts 178°
2026-05-04 13:38 46.08198 5.93761 9270 ft 285 kts 166°
2026-05-04 13:38 46.06281 5.94571 10101 ft 288 kts 161°
2026-05-04 13:38 46.04333 5.95517 10628 ft 305 kts 161°
2026-05-04 13:38 46.02242 5.96504 10956 ft 325 kts 162°
2026-05-04 13:39 46.00051 5.97455 11598 ft 332 kts 163°
2026-05-04 13:39 45.97815 5.98338 12327 ft 335 kts 166°
2026-05-04 13:39 45.95490 5.98747 13042 ft 339 kts 180°
2026-05-04 13:39 45.93127 5.98596 13755 ft 341 kts 183°
2026-05-04 13:40 45.90746 5.98424 14452 ft 344 kts 183°
2026-05-04 13:40 45.88349 5.98268 15121 ft 346 kts 183°
2026-05-04 13:40 45.85935 5.98121 15779 ft 348 kts 183°
2026-05-04 13:40 45.83511 5.97978 16424 ft 350 kts 183°
2026-05-04 13:41 45.81061 5.97833 17054 ft 353 kts 183°
2026-05-04 13:41 45.78609 5.97630 17667 ft 353 kts 187°
2026-05-04 13:41 45.76144 5.97361 18271 ft 356 kts 184°
2026-05-04 13:42 45.71142 5.97201 19386 ft 362 kts 182°
2026-05-04 13:42 45.68617 5.97174 19944 ft 363 kts 182°
2026-05-04 13:42 45.66086 5.97114 20497 ft 366 kts 183°
2026-05-04 13:42 45.63535 5.97012 21020 ft 367 kts 184°
2026-05-04 13:43 45.61006 5.96880 21529 ft 369 kts 184°
2026-05-04 13:43 45.58435 5.96728 22036 ft 371 kts 184°
2026-05-04 13:43 45.55842 5.96567 22525 ft 373 kts 185°
2026-05-04 13:43 45.53235 5.96406 23009 ft 375 kts 185°
2026-05-04 13:44 45.50628 5.96249 23451 ft 377 kts 184°
2026-05-04 13:44 45.47998 5.96045 23879 ft 378 kts 188°
2026-05-04 13:44 45.45413 5.95349 24291 ft 379 kts 194°
2026-05-04 13:44 45.42834 5.94527 24700 ft 381 kts 194°
2026-05-04 13:45 45.40234 5.93712 25078 ft 383 kts 194°
2026-05-04 13:45 45.37621 5.92899 25464 ft 386 kts 194°
2026-05-04 13:45 45.34992 5.92086 25838 ft 388 kts 194°
2026-05-04 13:45 45.32351 5.91271 26193 ft 390 kts 194°
2026-05-04 13:46 45.29693 5.90445 26540 ft 392 kts 194°
2026-05-04 13:46 45.27018 5.89609 26893 ft 394 kts 194°
2026-05-04 13:46 45.24326 5.88768 27243 ft 397 kts 194°
2026-05-04 13:46 45.21624 5.87931 27591 ft 399 kts 194°
2026-05-04 13:47 45.18909 5.87090 27918 ft 401 kts 194°
2026-05-04 13:47 45.16173 5.86240 28254 ft 403 kts 194°
2026-05-04 13:47 45.13423 5.85384 28590 ft 405 kts 194°
2026-05-04 13:47 45.10663 5.84527 28920 ft 407 kts 194°
2026-05-04 13:48 45.07889 5.83666 29231 ft 409 kts 194°
2026-05-04 13:48 45.05110 5.82809 29547 ft 411 kts 194°
2026-05-04 13:48 45.02305 5.81947 29836 ft 412 kts 195°
2026-05-04 13:48 44.99492 5.81084 30115 ft 414 kts 195°
2026-05-04 13:49 44.96673 5.80219 30409 ft 416 kts 195°
2026-05-04 13:49 44.93838 5.79349 30699 ft 417 kts 195°
2026-05-04 13:49 44.91002 5.78477 30967 ft 419 kts 195°
2026-05-04 13:49 44.88151 5.77598 31225 ft 420 kts 195°
2026-05-04 13:50 44.85299 5.76719 31596 ft 419 kts 195°
2026-05-04 13:50 44.82461 5.75848 31971 ft 417 kts 195°
2026-05-04 13:50 44.79665 5.74993 32328 ft 416 kts 195°
2026-05-04 13:50 44.76845 5.74132 32684 ft 414 kts 195°
2026-05-04 13:51 44.74024 5.73274 33007 ft 413 kts 195°
2026-05-04 13:51 44.71218 5.72420 33332 ft 412 kts 195°
2026-05-04 13:51 44.68418 5.71566 33653 ft 411 kts 195°
2026-05-04 13:51 44.65629 5.70715 33981 ft 410 kts 195°
2026-05-04 13:52 44.60069 5.69026 34618 ft 408 kts 195°
2026-05-04 13:52 44.57287 5.68184 34909 ft 407 kts 195°
2026-05-04 13:52 44.54521 5.67345 35173 ft 407 kts 196°
2026-05-04 13:53 44.51753 5.66501 35417 ft 407 kts 196°
2026-05-04 13:53 44.49868 5.65926 35560 ft 407 kts 196°
2026-05-04 13:54 44.48379 5.65474 35672 ft 407 kts 196°
2026-05-04 13:54 44.47331 5.65156 35755 ft 408 kts 196°
2026-05-04 13:54 44.41790 5.63497 36188 ft 407 kts 196°
2026-05-04 13:55 44.39020 5.62662 36395 ft 406 kts 198°
2026-05-04 13:55 44.33736 5.60041 36749 ft 403 kts 205°
2026-05-04 13:55 44.31134 5.58607 36973 ft 401 kts 205°
2026-05-04 13:56 44.25984 5.55770 37046 ft 394 kts 205°
2026-05-04 13:57 44.18360 5.51594 37046 ft 392 kts 205°
2026-05-04 13:58 44.08203 5.46072 37033 ft 392 kts 205°
2026-05-04 13:58 44.00589 5.41934 37040 ft 392 kts 205°
2026-05-04 13:59 43.95518 5.39182 37043 ft 391 kts 206°
2026-05-04 14:00 43.87919 5.35070 37046 ft 390 kts 206°
2026-05-04 14:00 43.80334 5.30981 37051 ft 389 kts 206°
2026-05-04 14:01 43.75280 5.28267 37047 ft 390 kts 206°
2026-05-04 14:02 43.67751 5.24226 37044 ft 388 kts 206°
2026-05-04 14:02 43.62716 5.21528 37042 ft 388 kts 206°
2026-05-04 14:03 43.57693 5.18838 37039 ft 387 kts 206°
2026-05-04 14:03 43.52674 5.16157 37041 ft 387 kts 206°
2026-05-04 14:04 43.45158 5.12155 37041 ft 385 kts 206°
2026-05-04 14:04 43.40159 5.09499 37039 ft 385 kts 207°
2026-05-04 14:05 43.35611 5.05836 37036 ft 378 kts 218°
2026-05-04 14:05 43.33453 5.03789 37032 ft 378 kts 218°
2026-05-04 14:06 43.29116 4.99702 37031 ft 378 kts 218°
2026-05-04 14:06 43.24781 4.95636 37032 ft 378 kts 218°
2026-05-04 14:07 43.20447 4.91569 37035 ft 377 kts 218°
2026-05-04 14:07 43.16127 4.87518 37030 ft 376 kts 218°
2026-05-04 14:08 43.11807 4.83474 37021 ft 376 kts 218°
2026-05-04 14:08 43.07484 4.79443 37020 ft 375 kts 218°
2026-05-04 14:09 43.00732 4.73986 37017 ft 377 kts 213°
2026-05-04 14:10 42.93860 4.68782 37013 ft 376 kts 213°
2026-05-04 14:10 42.89286 4.65320 37012 ft 376 kts 213°
2026-05-04 14:11 42.84714 4.61865 37009 ft 375 kts 213°
2026-05-04 14:11 42.78611 4.57258 37008 ft 374 kts 213°
2026-05-04 14:12 42.74053 4.53827 37003 ft 374 kts 213°
2026-05-04 14:13 42.67218 4.48696 37006 ft 374 kts 213°
2026-05-04 14:13 42.62665 4.45282 37007 ft 373 kts 213°
2026-05-04 14:14 42.58117 4.41878 37006 ft 373 kts 213°
2026-05-04 14:14 42.51292 4.36793 37005 ft 373 kts 213°
2026-05-04 14:15 42.42202 4.30046 37001 ft 372 kts 213°
2026-05-04 14:16 42.35411 4.24996 36996 ft 371 kts 213°
2026-05-04 14:17 42.28621 4.19972 36994 ft 371 kts 213°
2026-05-04 14:18 42.21821 4.14956 36995 ft 371 kts 213°
2026-05-04 14:19 42.12779 4.08295 36983 ft 370 kts 213°
2026-05-04 14:19 42.08261 4.04978 36976 ft 369 kts 213°
2026-05-04 14:20 42.03749 4.01674 36971 ft 369 kts 213°
2026-05-04 14:20 41.99241 3.98372 36971 ft 369 kts 213°
2026-05-04 14:21 41.92374 3.93615 36969 ft 375 kts 205°
2026-05-04 14:21 41.87202 3.92159 36966 ft 382 kts 197°
2026-05-04 14:22 41.81955 3.90956 36963 ft 382 kts 197°
2026-05-04 14:22 41.76717 3.89744 36962 ft 382 kts 197°
2026-05-04 14:23 41.68842 3.87930 36175 ft 381 kts 197°
2026-05-04 14:23 41.66270 3.87346 35592 ft 371 kts 197°
2026-05-04 14:24 41.63739 3.86769 34911 ft 368 kts 197°
2026-05-04 14:24 41.61257 3.86205 34789 ft 356 kts 197°
2026-05-04 14:24 41.58830 3.85655 34391 ft 352 kts 197°
2026-05-04 14:24 41.56424 3.85102 33904 ft 350 kts 197°
2026-05-04 14:25 41.54027 3.84547 33421 ft 349 kts 197°
2026-05-04 14:25 41.49277 3.83440 32474 ft 345 kts 197°
2026-05-04 14:25 41.46918 3.82898 32008 ft 343 kts 197°
2026-05-04 14:26 41.44575 3.82362 31544 ft 340 kts 197°
2026-05-04 14:26 41.42248 3.81831 31091 ft 338 kts 197°
2026-05-04 14:26 41.39940 3.81305 30642 ft 335 kts 197°
2026-05-04 14:26 41.37680 3.80789 30216 ft 332 kts 197°
2026-05-04 14:27 41.35379 3.80264 29780 ft 330 kts 197°
2026-05-04 14:27 41.33153 3.79759 29372 ft 327 kts 197°
2026-05-04 14:27 41.30920 3.79253 28961 ft 324 kts 197°
2026-05-04 14:27 41.28679 3.78743 28554 ft 321 kts 197°
2026-05-04 14:28 41.26489 3.78244 28164 ft 318 kts 197°
2026-05-04 14:28 41.24324 3.77749 27772 ft 315 kts 196°
2026-05-04 14:28 41.22177 3.77259 27392 ft 312 kts 197°
2026-05-04 14:28 41.20044 3.76771 26998 ft 310 kts 197°
2026-05-04 14:29 41.15800 3.76025 26217 ft 314 kts 186°
2026-05-04 14:29 41.11417 3.77090 25367 ft 325 kts 173°
2026-05-04 14:30 41.09240 3.77890 24943 ft 324 kts 173°
2026-05-04 14:30 41.07066 3.78687 24502 ft 324 kts 173°
2026-05-04 14:30 41.02730 3.80267 23619 ft 322 kts 173°
2026-05-04 14:31 41.00576 3.81049 23209 ft 320 kts 172°
2026-05-04 14:31 40.96261 3.82608 22376 ft 318 kts 172°
2026-05-04 14:32 40.91993 3.84142 21567 ft 317 kts 172°
2026-05-04 14:32 40.89866 3.84906 21164 ft 316 kts 172°
2026-05-04 14:32 40.87773 3.85660 20778 ft 316 kts 171°
2026-05-04 14:32 40.85653 3.86420 20379 ft 315 kts 171°
2026-05-04 14:33 40.83541 3.87181 19989 ft 314 kts 171°
2026-05-04 14:33 40.81429 3.87940 19590 ft 314 kts 171°
2026-05-04 14:33 40.79319 3.88698 19209 ft 314 kts 171°
2026-05-04 14:33 40.77210 3.89454 18819 ft 314 kts 171°
2026-05-04 14:34 40.75103 3.90208 18432 ft 314 kts 170°
2026-05-04 14:34 40.72992 3.90964 18046 ft 315 kts 169°
2026-05-04 14:34 40.70878 3.91724 17664 ft 315 kts 170°
2026-05-04 14:34 40.68765 3.92482 17278 ft 315 kts 169°
2026-05-04 14:35 40.66649 3.93240 16896 ft 315 kts 169°
2026-05-04 14:35 40.64536 3.93996 16514 ft 315 kts 169°
2026-05-04 14:35 40.62422 3.94752 16132 ft 315 kts 169°
2026-05-04 14:35 40.60310 3.95506 15754 ft 315 kts 169°
2026-05-04 14:36 40.58194 3.96256 15377 ft 315 kts 169°
2026-05-04 14:36 40.56080 3.97005 15001 ft 314 kts 169°
2026-05-04 14:36 40.53969 3.97756 14615 ft 314 kts 168°
2026-05-04 14:36 40.51859 3.98508 14236 ft 314 kts 168°
2026-05-04 14:37 40.49756 3.99257 13855 ft 313 kts 168°
2026-05-04 14:37 40.47660 4.00005 13469 ft 312 kts 168°
2026-05-04 14:37 40.45568 4.00755 13082 ft 311 kts 168°
2026-05-04 14:37 40.43484 4.01499 12696 ft 310 kts 168°
2026-05-04 14:38 40.41407 4.02240 12295 ft 309 kts 168°
2026-05-04 14:38 40.39332 4.02978 11904 ft 308 kts 168°
2026-05-04 14:38 40.37273 4.03709 11505 ft 306 kts 168°
2026-05-04 14:38 40.35219 4.04435 11101 ft 305 kts 168°
2026-05-04 14:39 40.33172 4.05156 10696 ft 304 kts 168°
2026-05-04 14:39 40.31141 4.05874 10383 ft 299 kts 168°
2026-05-04 14:39 40.29166 4.06578 10237 ft 290 kts 168°
2026-05-04 14:40 40.25443 4.07899 9178 ft 282 kts 169°
2026-05-04 14:40 40.23570 4.08560 8737 ft 274 kts 169°
2026-05-04 14:40 40.21765 4.09198 8335 ft 264 kts 169°
2026-05-04 14:40 40.20028 4.09814 7952 ft 254 kts 169°
2026-05-04 14:41 40.18344 4.10410 7581 ft 251 kts 170°
2026-05-04 14:41 40.16657 4.11001 7189 ft 251 kts 170°
2026-05-04 14:41 40.13280 4.12182 6407 ft 251 kts 170°
2026-05-04 14:42 40.10102 4.13300 5646 ft 251 kts 168°
2026-05-04 14:42 40.08563 4.14460 5128 ft 266 kts 136°
2026-05-04 14:42 40.07752 4.16641 4599 ft 273 kts 101°
2026-05-04 14:43 40.07683 4.19106 4023 ft 269 kts 98°
2026-05-04 14:43 40.07248 4.21327 3928 ft 240 kts 120°
2026-05-04 14:43 40.06353 4.23082 3844 ft 229 kts 138°
2026-05-04 14:43 40.05126 4.24344 3709 ft 223 kts 155°
2026-05-04 14:44 40.03703 4.25042 3498 ft 216 kts 172°
2026-05-04 14:44 40.02218 4.25147 3247 ft 213 kts 188°
2026-05-04 14:44 40.00765 4.24859 2976 ft 211 kts 190°
2026-05-04 14:44 39.99331 4.24562 2668 ft 206 kts 188°
2026-05-04 14:45 39.97953 4.24275 2403 ft 196 kts 191°
2026-05-04 14:45 39.96656 4.24008 2188 ft 181 kts 191°
2026-05-04 14:45 39.95449 4.23753 1922 ft 172 kts 191°
2026-05-04 14:45 39.94304 4.23515 1723 ft 158 kts 191°
2026-05-04 14:46 39.93245 4.23303 1505 ft 150 kts 191°
2026-05-04 14:46 39.92235 4.23099 1308 ft 145 kts 192°
2026-05-04 14:46 39.91247 4.22902 1110 ft 143 kts 192°
2026-05-04 14:46 39.90281 4.22696 940 ft 143 kts 192°
2026-05-04 14:47 39.89301 4.22500 769 ft 143 kts 192°
2026-05-04 14:47 39.88316 4.22279 592 ft 144 kts 190°
2026-05-04 14:47 39.87329 4.22086 384 ft 143 kts 191°
2026-05-04 14:47 39.86422 4.21893 304 ft 102 kts 187°
2026-05-04 14:48 39.86002 4.21811 302 ft 36 kts 189°
2026-05-04 14:48 39.85751 4.21761 296 ft 37 kts 187°
2026-05-04 14:48 39.85515 4.21793 287 ft 26 kts 163°
2026-05-04 14:48 39.85437 4.21832 283 ft 0 kts 158°
2026-05-04 14:49 39.85402 4.21891 282 ft 14 kts 107°
2026-05-04 14:49 39.85451 4.21937 284 ft 10 kts 11°
2026-05-04 14:49 39.85588 4.21967 287 ft 30 kts 11°
2026-05-04 14:50 39.85811 4.22011 294 ft 31 kts
2026-05-04 14:50 39.86018 4.22054 296 ft 28 kts
2026-05-04 14:50 39.86179 4.22099 294 ft 15 kts 47°
2026-05-04 14:50 39.86190 4.22235 289 ft 15 kts 75°
2026-05-04 14:51 39.86248 4.22269 288 ft 7 kts 16°
2026-05-04 14:51 39.86353 4.22293 288 ft 21 kts
2026-05-04 14:51 39.86429 4.22329 288 ft 7 kts 76°
2026-05-04 14:51 39.86429 4.22356 287 ft 5 kts 97°
2026-05-04 14:52 39.86427 4.22378 286 ft 1 kts 98°
2026-05-04 14:52 39.86425 4.22390 286 ft 0 kts 98°